Location: Kielce
(50.8833°N, 20.6167°E)
Time: 22:01:24
(UTC+02:00)

Altair - Visible Passes

Search period start: 17 April 2021 00:00
Search period end: 27 April 2021 00:00
Orbit: 1501 x 1683 km, 47.2° (Epoch: 17 April)

Date Brightness Start Highest point End Pass type
(mag) Time Alt. Az. Time Alt. Az. Time Alt. Az.
21 Apr 9.2 04:37:34 10° S 04:44:54 24° SE 04:52:01 10° E visible
22 Apr 9.2 04:12:51 10° S 04:19:51 22° SE 04:26:42 10° E visible
23 Apr 9.2 03:48:11 10° S 03:54:49 20° SE 04:01:20 10° E visible
24 Apr 9.2 03:23:34 10° SSE 03:29:48 19° SE 03:35:54 10° E visible
25 Apr 9.3 02:59:02 10° SSE 03:04:46 17° SE 03:10:25 10° E visible
26 Apr 9.3 02:34:36 10° SSE 02:39:46 15° SE 02:44:51 10° E visible
26 Apr 8.4 04:33:22 10° SSW 04:42:32 43° SSE 04:51:25 10° E visible
